Hourly Data Report for November 30, 2016

ABBOTSFORD A
BRITISH COLUMBIA

49°01'31.000" N
122°21'36.000" W
59.10 m
1100031
71108
YXX

Download Data

Hourly Data (November 2016)
Hourly Data Report for November 30, 2016
TIME
LST
Temp Definition
°C
Dew Point Definition
°C
Rel Hum Definition
%
Precip. Amount Definition
mm

Wind Dir Definition
10's deg

Wind Spd Definition
km/h
Visibility Definition
km
Stn Press Definition
kPa
Hmdx Definition


Wind Chill Definition


Weather Definition


00:00 5.7 3.6 86   5 11 16.1 100.37     LegendNANA
01:00 4.9 3.9 93   7 8 12.9 100.32     Rain
02:00 5.2 4.2 93   9 5 8.1 100.32     Rain, Fog
03:00 4.9 4.5 97   3 10 16.1 100.28     Rain
04:00 5.0 4.4 96   3 9 16.1 100.27     Rain
05:00 5.4 4.2 92   5 8 16.1 100.26     LegendNANA
06:00 5.5 4.2 91   7 9 16.1 100.23     Rain
07:00 5.5 4.3 92   7 14 16.1 100.23     Rain Showers
08:00 5.5 4.6 94   11 12 4.0 100.27     Moderate Rain Showers
09:00 5.6 4.9 95   6 6 4.0 100.31     Moderate Rain Showers
10:00 5.6 5.2 97   3 7 9.7 100.39     Moderate Rain Showers
11:00 5.8 5.4 97   6 13 3.2 100.41     Moderate Rain
12:00 5.6 5.2 97   6 14 2.4 100.44     Moderate Rain, Fog
13:00 6.4 6.1 98   10 14 9.7 100.48     Rain
14:00 6.2 5.9 98   36 12 3.2 100.54     Moderate Rain, Fog
15:00 5.5 4.9 96   30 15 4.0 100.72     Rain, Fog
16:00 5.5 5.4 99   14 13 4.0 100.81     Rain, Fog
17:00 6.5 5.6 94   19 19 16.1 100.86     LegendNANA
18:00 6.8 5.1 89   19 16 16.1 100.93     LegendNANA
19:00 6.8 4.1 83   21 18 16.1 100.99     Mostly Cloudy
20:00 6.0 3.7 85   20 17 16.1 101.04     LegendNANA
21:00 6.4 4.1 85   19 23 19.3 101.08     LegendNANA
22:00 5.2 3.7 90   20 18 16.1 101.16     Mainly Clear
23:00 5.4 3.4 87   19 15 16.1 101.23     LegendNANA

Notes on Data Quality.

Legend

  • E = Estimated
  • M = Missing
  • NA = Not Available*
  • [empty] = Indicates an unobserved value
Date modified: